Location: Krakow
(50.0830°N, 19.9170°E)
Time: 12:45:38
(UTC+01:00)

Vanguard 2 - Pass Details

Date: 11 December 2023
Orbit: 553 x 2919 km, 32.9° (Epoch: 24 February)

Event Time Altitude Azimuth Distance (km) Brightness Sun altitude
Rises 15:51:57 0° 178° (S) 6,060 12.6 -2.7°
Reaches altitude 10° 15:59:44 10° 153° (SSE) 5,472 11.9 -3.7°
Maximum altitude 16:05:24 13° 133° (SE) 5,436 11.7 -4.5°
Drops below altitude 10° 16:11:17 10° 113° (ESE) 5,745 11.6 -5.3°
Sets 16:19:54 0° 90° (E) 6,686 11.8 -6.5°
